Location: McFarlands Corners
(41.4117°N, 81.3382°W)
Time: 20:39:17
(UTC+00:00)

SR - Pass Details

Date: 19 February 2026
Orbit: 572 x 848 km, 66.7° (Epoch: 8 March)

Event Time Altitude Azimuth Distance (km) Brightness Sun altitude
Rises 17:08:43 0° 340° (NNW) 3,065 ? 37.0°
Reaches altitude 10° 17:11:24 10° 354° (N) 2,196 ? 37.1°
Maximum altitude 17:15:28 24° 48° (NE) 1,517 ? 37.2°
Drops below altitude 10° 17:19:45 10° 102° (ESE) 2,333 ? 37.3°
Sets 17:22:41 0° 116° (ESE) 3,302 ? 37.4°
